QPF
0.06 0.06 0.05 0.06 0.09 0.09 0.08 0.08 0.07 0.07 0.07 0.05 0.04 0.03 0.03 0.03 0.04 0.03 0.04 0.04 0.04 0.04 0.03 0.02 0.02 0.02 0.02 0.02 0.02 0.03 0.04 0.05 0.05 0.05 0.06 0.07 0.07 0.07
0.05 0.03 0.03 0.03 0.05 0.07 0.07 0.07 0.06 0.05 0.06 0.05 0.05 0.04 0.03 0.03 0.04 0.03 0.04 0.04 0.03 0.02 0.02 0.02 0.01 0.02 0.02 0.01 0.01 0.01 0.03 0.03 0.03 0.03 0.04 0.06 0.07 0.07
0.04 0.02 0.02 0.03 0.03 0.05 0.06 0.07 0.07 0.06 0.05 0.05 0.05 0.04 0.03 0.03 0.03 0.03 0.04 0.04 0.03 0.03 0.02 0.02 0.01 0.01 0.01 0.01 0.01 0.01 0.02 0.04 0.03 0.02 0.02 0.04 0.06 0.06
0.04 0.04 0.03 0.05 0.04 0.03 0.04 0.04 0.06 0.06 0.05 0.04 0.05 0.04 0.04 0.04 0.04 0.04 0.04 0.04 0.04 0.03 0.03 0.02 0.02 0.01 0.01 0.00 0.00 0.00 0.01 0.04 0.04 0.03 0.02 0.02 0.03 0.04
0.05 0.04 0.04 0.05 0.03 0.03 0.03 0.04 0.05 0.05 0.06 0.05 0.05 0.05 0.05 0.05 0.04 0.04 0.04 0.04 0.04 0.04 0.03 0.02 0.02 0.01 0.01 0.01 0.01 0.01 0.01 0.02 0.03 0.03 0.02 0.01 0.02 0.02
0.04 0.04 0.05 0.04 0.04 0.05 0.06 0.05 0.06 0.07 0.07 0.07 0.07 0.06 0.05 0.05 0.05 0.03 0.03 0.04 0.04 0.04 0.04 0.03 0.02 0.01 0.01 0.01 0.01 0.01 0.01 0.02 0.03 0.03 0.03 0.03 0.02 0.02
0.03 0.04 0.04 0.04 0.04 0.06 0.06 0.06 0.07 0.07 0.06 0.06 0.05 0.05 0.04 0.04 0.04 0.04 0.04 0.04 0.05 0.04 0.04 0.03 0.02 0.01 0.01 0.01 0.01 0.02 0.01 0.01 0.02 0.03 0.03 0.04 0.03 0.02
0.02 0.02 0.02 0.02 0.03 0.05 0.07 0.08 0.08 0.07 0.06 0.04 0.04 0.05 0.04 0.03 0.03 0.04 0.04 0.03 0.03 0.03 0.05 0.04 0.04 0.02 0.02 0.01 0.01 0.01 0.01 0.01 0.02 0.03 0.03 0.03 0.03 0.02
0.02 0.02 0.01 0.01 0.01 0.02 0.05 0.06 0.06 0.05 0.05 0.04 0.03 0.03 0.03 0.03 0.03 0.03 0.03 0.02 0.02 0.03 0.04 0.05 0.05 0.04 0.04 0.03 0.03 0.01 0.01 0.01 0.01 0.01 0.02 0.02 0.03 0.02
0.02 0.02 0.01 0.01 0.01 0.02 0.04 0.05 0.04 0.03 0.03 0.03 0.02 0.02 0.02 0.03 0.04 0.03 0.03 0.03 0.03 0.03 0.03 0.04 0.04 0.04 0.03 0.04 0.04 0.03 0.03 0.02 0.01 0.01 0.01 0.01 0.02 0.03
0.05 0.03 0.01 0.01 0.01 0.03 0.05 0.04 0.03 0.02 0.02 0.03 0.03 0.03 0.03 0.03 0.04 0.04 0.03 0.04 0.03 0.03 0.04 0.04 0.04 0.05 0.05 0.05 0.05 0.05 0.04 0.03 0.03 0.03 0.03 0.02 0.02 0.02
0.07 0.05 0.03 0.02 0.02 0.03 0.05 0.04 0.03 0.02 0.03 0.03 0.04 0.04 0.03 0.03 0.04 0.04 0.04 0.05 0.05 0.05 0.05 0.06 0.06 0.06 0.06 0.05 0.05 0.07 0.08 0.07 0.05 0.04 0.04 0.03 0.03 0.02
0.07 0.07 0.06 0.05 0.04 0.04 0.04 0.02 0.02 0.04 0.05 0.06 0.06 0.05 0.04 0.03 0.03 0.04 0.04 0.04 0.05 0.05 0.07 0.10 0.11 0.10 0.08 0.06 0.06 0.07 0.06 0.06 0.05 0.05 0.05 0.05 0.04 0.03
0.06 0.06 0.05 0.05 0.05 0.04 0.03 0.02 0.02 0.04 0.05 0.07 0.07 0.06 0.04 0.03 0.03 0.04 0.04 0.03 0.03 0.04 0.05 0.07 0.08 0.08 0.09 0.08 0.06 0.07 0.07 0.05 0.04 0.05 0.05 0.05 0.05 0.05
0.04 0.04 0.04 0.04 0.04 0.03 0.02 0.02 0.03 0.04 0.03 0.04 0.05 0.05 0.04 0.04 0.05 0.04 0.04 0.03 0.03 0.03 0.04 0.05 0.06 0.07 0.07 0.07 0.06 0.06 0.06 0.05 0.04 0.03 0.03 0.03 0.04 0.04
0.04 0.04 0.03 0.03 0.03 0.02 0.02 0.02 0.02 0.02 0.02 0.02 0.03 0.04 0.06 0.05 0.05 0.05 0.06 0.05 0.05 0.04 0.04 0.05 0.06 0.07 0.08 0.08 0.07 0.07 0.06 0.05 0.04 0.03 0.03 0.03 0.03 0.04
0.03 0.03 0.02 0.02 0.02 0.02 0.02 0.02 0.03 0.04 0.05 0.05 0.05 0.06 0.07 0.08 0.08 0.08 0.09 0.10 0.09 0.07 0.05 0.05 0.06 0.07 0.08 0.08 0.07 0.05 0.05 0.05 0.04 0.04 0.03 0.03 0.04 0.05
0.02 0.02 0.02 0.02 0.03 0.03 0.04 0.04 0.05 0.06 0.07 0.08 0.08 0.09 0.12 0.13 0.14 0.13 0.12 0.12 0.11 0.08 0.07 0.07 0.06 0.07 0.08 0.08 0.07 0.05 0.04 0.03 0.03 0.03 0.03 0.03 0.05 0.06
0.01 0.02 0.02 0.02 0.03 0.03 0.04 0.05 0.07 0.10 0.11 0.10 0.10 0.10 0.11 0.11 0.10 0.10 0.09 0.09 0.08 0.08 0.08 0.07 0.07 0.06 0.06 0.06 0.06 0.04 0.03 0.03 0.03 0.03 0.03 0.02 0.03 0.05
0.02 0.02 0.03 0.03 0.03 0.04 0.05 0.05 0.07 0.09 0.09 0.08 0.07 0.07 0.08 0.08 0.08 0.08 0.08 0.08 0.07 0.07 0.07 0.06 0.07 0.05 0.04 0.03 0.03 0.03 0.03 0.03 0.03 0.03 0.03 0.02 0.02 0.02
0.03 0.04 0.03 0.03 0.04 0.04 0.04 0.05 0.05 0.06 0.08 0.08 0.08 0.08 0.07 0.07 0.06 0.07 0.08 0.09 0.09 0.08 0.07 0.07 0.06 0.05 0.05 0.04 0.03 0.03 0.03 0.04 0.05 0.04 0.04 0.03 0.02 0.02
0.05 0.05 0.05 0.04 0.03 0.04 0.05 0.06 0.07 0.06 0.07 0.07 0.06 0.06 0.08 0.09 0.08 0.08 0.09 0.09 0.09 0.08 0.08 0.08 0.08 0.07 0.06 0.04 0.03 0.03 0.03 0.04 0.04 0.04 0.04 0.04 0.04 0.04
0.04 0.04 0.03 0.03 0.02 0.02 0.03 0.04 0.07 0.09 0.07 0.06 0.06 0.06 0.07 0.10 0.11 0.10 0.09 0.07 0.06 0.06 0.06 0.06 0.05 0.06 0.06 0.05 0.04 0.04 0.04 0.03 0.03 0.03 0.03 0.03 0.03 0.04
MSLP
1009.89 1009.64 1009.42 1009.22 1009.01 1008.77 1008.49 1008.19 1007.87 1007.55 1007.26 1007.01 1006.82 1006.68 1006.60 1006.58 1006.60 1006.68 1006.82 1007.02 1007.31 1007.68 1008.13 1008.63 1009.18 1009.73 1010.26 1010.75 1011.18 1011.58 1011.94 1012.31 1012.70 1013.15 1013.66 1014.23 1014.84 1015.46
1009.30 1008.91 1008.57 1008.26 1007.96 1007.68 1007.40 1007.13 1006.87 1006.63 1006.42 1006.25 1006.13 1006.04 1006.00 1005.99 1006.02 1006.10 1006.23 1006.44 1006.74 1007.12 1007.59 1008.12 1008.69 1009.27 1009.83 1010.35 1010.81 1011.23 1011.62 1012.01 1012.43 1012.89 1013.40 1013.97 1014.57 1015.18
1008.71 1008.18 1007.70 1007.27 1006.89 1006.56 1006.28 1006.04 1005.84 1005.70 1005.59 1005.53 1005.50 1005.49 1005.50 1005.53 1005.58 1005.67 1005.81 1006.02 1006.31 1006.70 1007.17 1007.71 1008.29 1008.88 1009.47 1010.01 1010.51 1010.97 1011.40 1011.82 1012.26 1012.73 1013.26 1013.82 1014.41 1015.00
1008.15 1007.48 1006.87 1006.32 1005.85 1005.47 1005.17 1004.97 1004.84 1004.78 1004.79 1004.84 1004.91 1005.00 1005.09 1005.17 1005.26 1005.37 1005.51 1005.72 1006.01 1006.39 1006.85 1007.38 1007.96 1008.56 1009.15 1009.72 1010.24 1010.73 1011.20 1011.66 1012.14 1012.64 1013.17 1013.73 1014.31 1014.88
1007.67 1006.88 1006.14 1005.48 1004.92 1004.48 1004.16 1003.97 1003.89 1003.91 1004.01 1004.16 1004.35 1004.53 1004.70 1004.85 1004.99 1005.13 1005.29 1005.50 1005.78 1006.14 1006.58 1007.09 1007.65 1008.24 1008.83 1009.41 1009.95 1010.47 1010.98 1011.48 1011.99 1012.52 1013.07 1013.64 1014.21 1014.76
1007.32 1006.42 1005.57 1004.81 1004.16 1003.65 1003.29 1003.09 1003.03 1003.10 1003.27 1003.50 1003.76 1004.03 1004.27 1004.49 1004.68 1004.86 1005.05 1005.27 1005.55 1005.89 1006.31 1006.79 1007.32 1007.89 1008.46 1009.03 1009.59 1010.13 1010.66 1011.20 1011.74 1012.31 1012.89 1013.48 1014.05 1014.60
1007.13 1006.15 1005.21 1004.35 1003.62 1003.03 1002.62 1002.38 1002.31 1002.38 1002.58 1002.85 1003.16 1003.48 1003.78 1004.05 1004.29 1004.51 1004.72 1004.96 1005.24 1005.57 1005.96 1006.42 1006.92 1007.45 1008.00 1008.55 1009.10 1009.66 1010.22 1010.78 1011.37 1011.97 1012.59 1013.20 1013.80 1014.36
1007.13 1006.09 1005.08 1004.15 1003.34 1002.68 1002.20 1001.90 1001.78 1001.82 1001.99 1002.25 1002.57 1002.90 1003.23 1003.53 1003.80 1004.05 1004.29 1004.54 1004.82 1005.15 1005.52 1005.95 1006.41 1006.91 1007.44 1007.97 1008.52 1009.08 1009.66 1010.26 1010.88 1011.52 1012.18 1012.83 1013.46 1014.05
1007.32 1006.25 1005.21 1004.22 1003.35 1002.62 1002.07 1001.69 1001.50 1001.47 1001.58 1001.80 1002.08 1002.39 1002.70 1003.00 1003.28 1003.54 1003.79 1004.05 1004.34 1004.66 1005.02 1005.42 1005.86 1006.33 1006.83 1007.35 1007.89 1008.46 1009.06 1009.68 1010.34 1011.02 1011.72 1012.41 1013.09 1013.72
1007.69 1006.63 1005.58 1004.58 1003.67 1002.90 1002.28 1001.84 1001.56 1001.45 1001.47 1001.60 1001.81 1002.06 1002.32 1002.59 1002.85 1003.09 1003.34 1003.60 1003.88 1004.19 1004.54 1004.92 1005.34 1005.79 1006.28 1006.79 1007.33 1007.91 1008.53 1009.18 1009.87 1010.59 1011.32 1012.06 1012.78 1013.45
1008.22 1007.20 1006.18 1005.21 1004.30 1003.52 1002.87 1002.37 1002.02 1001.82 1001.75 1001.78 1001.89 1002.06 1002.25 1002.45 1002.66 1002.87 1003.09 1003.33 1003.59 1003.89 1004.22 1004.59 1004.99 1005.43 1005.91 1006.42 1006.97 1007.56 1008.19 1008.87 1009.59 1010.34 1011.11 1011.87 1012.62 1013.34
1008.87 1007.93 1006.98 1006.06 1005.21 1004.45 1003.80 1003.27 1002.88 1002.61 1002.46 1002.40 1002.41 1002.48 1002.58 1002.70 1002.84 1003.00 1003.17 1003.37 1003.60 1003.87 1004.18 1004.53 1004.92 1005.35 1005.82 1006.34 1006.90 1007.51 1008.16 1008.86 1009.60 1010.37 1011.15 1011.94 1012.70 1013.43
1009.60 1008.76 1007.92 1007.10 1006.33 1005.63 1005.02 1004.51 1004.10 1003.80 1003.58 1003.44 1003.37 1003.35 1003.36 1003.40 1003.46 1003.54 1003.66 1003.81 1003.99 1004.22 1004.50 1004.83 1005.20 1005.63 1006.10 1006.62 1007.19 1007.81 1008.48 1009.19 1009.94 1010.71 1011.50 1012.28 1013.03 1013.76
1010.36 1009.65 1008.94 1008.24 1007.59 1006.98 1006.44 1005.97 1005.59 1005.27 1005.03 1004.84 1004.70 1004.61 1004.54 1004.50 1004.49 1004.51 1004.56 1004.64 1004.78 1004.96 1005.20 1005.50 1005.85 1006.26 1006.72 1007.24 1007.82 1008.44 1009.12 1009.83 1010.57 1011.34 1012.10 1012.86 1013.59 1014.28
1011.13 1010.55 1009.98 1009.42 1008.88 1008.38 1007.93 1007.53 1007.19 1006.89 1006.65 1006.44 1006.27 1006.13 1006.01 1005.91 1005.84 1005.79 1005.78 1005.81 1005.88 1006.02 1006.21 1006.47 1006.80 1007.18 1007.63 1008.14 1008.71 1009.33 1009.99 1010.69 1011.41 1012.15 1012.88 1013.59 1014.27 1014.91
1011.86 1011.42 1010.97 1010.54 1010.12 1009.73 1009.37 1009.04 1008.75 1008.49 1008.27 1008.07 1007.89 1007.72 1007.58 1007.44 1007.33 1007.24 1007.18 1007.16 1007.20 1007.28 1007.43 1007.65 1007.94 1008.29 1008.72 1009.20 1009.75 1010.35 1010.98 1011.65 1012.34 1013.03 1013.71 1014.36 1014.99 1015.56
1012.53 1012.21 1011.88 1011.56 1011.24 1010.94 1010.65 1010.39 1010.15 1009.93 1009.73 1009.55 1009.39 1009.23 1009.08 1008.94 1008.81 1008.70 1008.61 1008.56 1008.56 1008.61 1008.72 1008.90 1009.14 1009.46 1009.85 1010.30 1010.81 1011.37 1011.96 1012.59 1013.22 1013.85 1014.47 1015.06 1015.61 1016.13
1013.13 1012.91 1012.67 1012.43 1012.18 1011.94 1011.71 1011.49 1011.29 1011.11 1010.94 1010.79 1010.65 1010.51 1010.38 1010.25 1010.13 1010.02 1009.93 1009.86 1009.84 1009.87 1009.95 1010.09 1010.30 1010.58 1010.92 1011.33 1011.79 1012.29 1012.83 1013.39 1013.96 1014.53 1015.08 1015.60 1016.09 1016.53
1013.67 1013.51 1013.34 1013.15 1012.95 1012.75 1012.55 1012.35 1012.18 1012.02 1011.88 1011.75 1011.64 1011.53 1011.42 1011.32 1011.22 1011.13 1011.05 1011.00 1010.97 1010.98 1011.04 1011.16 1011.34 1011.57 1011.87 1012.22 1012.63 1013.07 1013.55 1014.04 1014.53 1015.03 1015.50 1015.95 1016.38 1016.76
1014.13 1014.04 1013.91 1013.75 1013.57 1013.39 1013.20 1013.02 1012.85 1012.71 1012.59 1012.48 1012.39 1012.31 1012.24 1012.17 1012.10 1012.04 1011.98 1011.94 1011.92 1011.93 1011.98 1012.08 1012.23 1012.43 1012.68 1012.98 1013.32 1013.70 1014.10 1014.52 1014.94 1015.36 1015.76 1016.14 1016.50 1016.84
1014.53 1014.47 1014.38 1014.24 1014.08 1013.90 1013.72 1013.55 1013.39 1013.26 1013.15 1013.06 1012.99 1012.94 1012.89 1012.85 1012.81 1012.78 1012.74 1012.72 1012.71 1012.73 1012.77 1012.86 1012.98 1013.15 1013.36 1013.61 1013.90 1014.21 1014.54 1014.88 1015.22 1015.56 1015.89 1016.21 1016.51 1016.79
1014.84 1014.82 1014.75 1014.64 1014.50 1014.33 1014.16 1014.00 1013.86 1013.73 1013.64 1013.57 1013.52 1013.49 1013.47 1013.45 1013.43 1013.41 1013.39 1013.38 1013.38 1013.40 1013.45 1013.53 1013.63 1013.77 1013.95 1014.15 1014.38 1014.63 1014.89 1015.16 1015.43 1015.69 1015.95 1016.21 1016.45 1016.68
1015.02 1015.04 1015.01 1014.93 1014.81 1014.67 1014.53 1014.40 1014.28 1014.18 1014.11 1014.06 1014.03 1014.02 1014.01 1014.00 1013.99 1013.98 1013.97 1013.97 1013.97 1013.99 1014.03 1014.10 1014.19 1014.31 1014.45 1014.62 1014.80 1014.99 1015.19 1015.39 1015.59 1015.78 1015.98 1016.17 1016.35 1016.54
Thickness
5734 5732 5731 5731 5730 5729 5727 5725 5720 5716 5717 5721 5722 5725 5725 5725 5724 5723 5722 5721 5719 5718 5717 5715 5714 5713 5711 5710 5709 5708 5707 5707 5707 5706 5706 5705 5704 5704
5731 5729 5728 5727 5726 5725 5724 5722 5720 5717 5714 5718 5719 5720 5720 5721 5720 5719 5718 5717 5716 5715 5714 5712 5711 5710 5708 5707 5706 5705 5704 5704 5703 5702 5702 5702 5701 5701
5727 5726 5724 5723 5722 5721 5719 5718 5716 5715 5712 5714 5715 5716 5715 5715 5715 5714 5713 5713 5712 5711 5710 5709 5707 5706 5704 5703 5702 5701 5700 5700 5699 5698 5698 5698 5698 5698
5723 5722 5720 5720 5717 5716 5715 5713 5712 5712 5710 5709 5710 5710 5710 5711 5710 5709 5709 5709 5708 5707 5707 5705 5704 5702 5701 5700 5698 5697 5696 5695 5694 5693 5693 5693 5692 5692
5720 5718 5716 5714 5713 5711 5710 5709 5709 5708 5707 5705 5705 5705 5705 5705 5704 5704 5704 5703 5703 5703 5702 5701 5700 5699 5697 5696 5695 5693 5692 5691 5689 5689 5688 5687 5686 5686
5715 5714 5713 5711 5709 5708 5706 5704 5704 5702 5701 5700 5699 5698 5698 5698 5697 5697 5697 5697 5697 5698 5697 5696 5695 5694 5693 5692 5690 5689 5687 5686 5685 5684 5683 5682 5681 5680
5710 5709 5708 5708 5707 5705 5703 5701 5699 5697 5695 5694 5693 5692 5692 5691 5691 5692 5691 5691 5691 5691 5690 5690 5689 5689 5687 5687 5685 5684 5682 5681 5680 5678 5677 5676 5676 5675
5704 5703 5703 5703 5702 5700 5699 5697 5695 5692 5690 5689 5688 5687 5687 5687 5687 5686 5684 5683 5684 5685 5684 5684 5684 5683 5683 5682 5681 5680 5678 5677 5675 5673 5672 5671 5670 5670
5699 5697 5698 5698 5696 5694 5693 5691 5689 5689 5688 5686 5684 5684 5683 5683 5682 5680 5679 5678 5679 5680 5678 5678 5678 5677 5678 5677 5676 5675 5674 5672 5670 5668 5667 5667 5666 5665
5693 5692 5691 5691 5690 5688 5687 5685 5684 5684 5683 5682 5682 5681 5681 5680 5679 5677 5675 5673 5673 5673 5672 5671 5672 5672 5673 5672 5671 5670 5668 5667 5665 5664 5663 5662 5661 5660
5687 5686 5684 5684 5684 5682 5680 5679 5678 5679 5679 5678 5678 5677 5676 5675 5674 5671 5668 5666 5666 5667 5667 5665 5666 5665 5665 5665 5664 5663 5662 5661 5660 5659 5658 5658 5657 5655
5680 5680 5679 5678 5677 5675 5674 5672 5672 5673 5673 5672 5671 5671 5670 5670 5668 5667 5665 5662 5661 5661 5661 5659 5658 5656 5656 5657 5656 5656 5655 5654 5654 5653 5652 5652 5650 5649
5673 5673 5673 5672 5671 5669 5667 5667 5667 5667 5666 5665 5665 5665 5664 5663 5663 5661 5660 5659 5657 5656 5656 5653 5651 5649 5648 5648 5647 5647 5647 5647 5647 5646 5645 5645 5644 5643
5666 5666 5666 5665 5663 5662 5661 5661 5660 5659 5659 5658 5657 5658 5658 5658 5657 5656 5655 5654 5653 5652 5651 5648 5646 5644 5641 5640 5640 5639 5639 5639 5639 5639 5639 5638 5637 5636
5659 5659 5658 5657 5656 5656 5655 5654 5654 5653 5652 5651 5652 5653 5653 5652 5651 5649 5648 5647 5646 5645 5644 5643 5641 5639 5636 5635 5634 5633 5631 5631 5631 5631 5631 5631 5630 5630
5650 5649 5649 5648 5648 5648 5647 5647 5647 5646 5646 5646 5647 5647 5646 5644 5643 5642 5640 5639 5638 5637 5637 5636 5635 5633 5630 5629 5628 5627 5625 5624 5624 5624 5623 5623 5622 5622
5640 5639 5640 5639 5639 5639 5639 5639 5639 5638 5638 5638 5638 5638 5638 5636 5635 5634 5632 5631 5629 5629 5629 5627 5626 5625 5624 5622 5620 5620 5618 5617 5617 5615 5614 5615 5615 5615
5631 5631 5630 5630 5630 5630 5630 5631 5631 5631 5631 5631 5631 5631 5630 5630 5628 5627 5625 5624 5622 5621 5621 5619 5617 5616 5614 5613 5612 5612 5611 5610 5609 5608 5607 5608 5608 5608
5623 5623 5622 5621 5621 5621 5622 5622 5622 5622 5622 5622 5622 5622 5623 5622 5621 5620 5619 5617 5615 5614 5613 5612 5610 5609 5608 5607 5606 5604 5604 5603 5601 5600 5600 5601 5602 5602
5614 5614 5614 5613 5613 5613 5614 5614 5614 5614 5614 5614 5614 5614 5614 5613 5613 5612 5611 5610 5608 5606 5605 5604 5603 5602 5602 5600 5598 5596 5596 5596 5595 5593 5592 5592 5592 5592
5606 5606 5606 5606 5605 5605 5606 5606 5605 5605 5605 5605 5605 5605 5604 5604 5605 5604 5603 5601 5599 5598 5597 5597 5597 5595 5593 5590 5588 5588 5588 5587 5588 5587 5586 5585 5585 5586
5599 5598 5598 5597 5597 5597 5597 5597 5597 5597 5596 5596 5596 5596 5596 5595 5595 5595 5595 5594 5592 5591 5590 5589 5587 5585 5584 5583 5583 5582 5580 5579 5579 5578 5578 5579 5580 5581
5592 5591 5591 5590 5589 5589 5589 5589 5589 5589 5588 5587 5587 5587 5587 5587 5587 5587 5586 5585 5584 5583 5581 5580 5578 5577 5576 5575 5575 5574 5573 5572 5571 5571 5571 5571 5572 5572